Location: Ch�teau-Arnoux
(44.0814°N, 6.0027°E)
Time: 07:32:10
(UTC+00:00)

Cosmos 1833 Rocket - Pass Details

Date: 15 November 2019
Orbit: 832 x 840 km, 71.0° (Epoch: 13 December)

Event Time Altitude Azimuth Distance (km) Brightness Sun altitude
Exits shadow 05:12:22 19° 301° (WNW) 1,902 4.0 -14.1°
Maximum altitude 05:13:16 19° 313° (NW) 1,870 4.0 -14.0°
Drops below altitude 10° 05:17:15 10° 359° (N) 2,453 5.0 -13.3°
Sets 05:20:26 0° 16° (NNE) 3,393 5.9 -12.7°
